Skip Page Navigation
NASA JPL Caltech
NASA Logo - Jet Propulsion Laboratory + View the NASA Portal
+ Center for Near-Earth Object Studies
JPL Home Earth Solar System Stars & Galaxies Technology
JPL Solar System Dynamics
BODIES ORBITS EPHEMERIDES TOOLS PHYSICAL DATA DISCOVERY FAQ SITE MAP
JPL Small-Body Database Browser
Search: [ help ]  
468727 (2010 JE87)
Classification: Aten [NEO, PHA]          SPK-ID: 2468727
Ephemeris | Orbit Diagram | Orbital Elements | Mission Design | Physical Parameters | Discovery Circumstances | Close-Approach Data ]

[ hide orbit diagram ]

For accurate long-term ephemerides, please instead use our Horizons system.This orbit viewer was implemented using two-body methods, and hence should not be used for determining accurate long-term trajectories (over several years or decades) or planetary encounter circumstances.


Orbital Elements at Epoch 2459200.5 (2020-Dec-17.0) TDB
Reference: JPL 41 (heliocentric ecliptic J2000)
 Element Value Uncertainty (1-sigma)   Units 
e .436883520170567 1.3619e-07  
a .9043602699561707 5.6128e-09 au
q .5092601717153146 1.2041e-07 au
i 16.92222491332187 1.7511e-05 deg
node 120.5058148747481 3.6699e-05 deg
peri 242.319043358384 2.8056e-05 deg
M 29.42699872321299 1.8757e-05 deg
tp 2459174.822418949065
(2020-Nov-21.32241895)
1.6272e-05 TDB
period 314.1308859012075
0.86
2.9244e-06
8.007e-09
d
yr
n 1.146019115462649 1.0669e-08 deg/d
Q 1.299460368197027 8.0649e-09 au
  Orbit Determination Parameters
   # obs. used (total)      147  
   data-arc span      3950 days (10.81 yr)  
   first obs. used      2010-05-10  
   last obs. used      2021-03-03  
   planetary ephem.      DE431  
   SB-pert. ephem.      SB431-N16  
   condition code      0  
   norm. resid. RMS      .51546  
   source      ORB  
   producer      Otto Matic  
   solution date      2021-Mar-04 05:59:01  

Additional Information
 Earth MOID = .0352242 au 
 Jupiter MOID = 4.19398 au 
 T_jup = 6.471 
[ show covariance matrix ]

Ephemeris | Orbit Diagram | Orbital Elements | Mission Design | Physical Parameters | Discovery Circumstances | Close-Approach Data ]

Physical Parameter Table
Parameter Symbol Value Units Sigma Reference Notes
absolute magnitude H 20.8   n/a E2021D10  
diameter diameter 0.308 km 0.016 urn:nasa:pds:neowise_diameters_albedos::2.0[neos] (http://adsabs.harvard.edu/abs/2011ApJ...743..156M)  
geometric albedo albedo 0.108   0.027 urn:nasa:pds:neowise_diameters_albedos::2.0[neos] (http://adsabs.harvard.edu/abs/2011ApJ...743..156M)  

468727 (2010 JE87)          Discovered 2010-May-10 by WISE at WISE
Reference: Last Updated: 2016-06-21

[ hide close-approach data ]
Close-Approach Data   ...sorted by Date/Time (TDB)
Date/Time (TDB) Time Uncertainty
(days_HH:MM)
Body Nominal Distance (au) Minimum Distance (au) Maximum Distance (au) V-relative (km/s) V-infinity (km/s) JD (TDB) Time Uncertainty (minutes) Semi-major axis (km) Semi-minor axis (km) range-LOV angle (deg) N-sigma BP Orbit Ref. Reference Modified
1901-Feb-28 05:49 00:25 Venus 0.139620496710925 0.13954429236284 0.13969679163796 14.9828102879536 14.981772182358 2415443.742346928 25.0463735879675 6775.4902477828 15.0295621143078 55.8625342574713 911093.467051647 T 41 CATAB v2.0f-lin.ifort 2021-Mar-04 05:59:02 2021-Mar-04 05:59
1903-Feb-07 21:23 00:07 Earth 0.338337211763091 0.338229477553511 0.338444945980305 25.1451430704592 25.1448298780812 2416153.391143938 6.87505337814951 5372.86632925301 15.0946571425464 -0.892433507913665 49304.1015941825 T 41 CATAB v2.0f-lin.ifort 2021-Mar-04 05:59:02 2021-Mar-04 05:59
1903-Nov-14 12:48 00:23 Earth 0.467793839787042 0.467753346970047 0.467834339177838 14.3437006398161 14.3433035372831 2416433.033571488 22.6483844363103 3424.41941951307 30.5276247541981 -53.8733520909063 1245717.24610547 T 41 CATAB v2.0f-lin.ifort 2021-Mar-04 05:59:02 2021-Mar-04 05:59
1904-Mar-02 08:39 00:18 Earth 0.39142507833219 0.391387480961249 0.391462675965281 11.2503250302418 11.2497199536962 2416541.860349488 18.4649263370552 1941.75628004132 57.8720162130408 15.0936757654093 249811.613603093 T 41 CATAB v2.0f-lin.ifort 2021-Mar-04 05:59:02 2021-Mar-04 05:59
1904-Aug-15 13:25 00:16 Earth 0.468360502690851 0.468334906509219 0.468386105808257 19.3180096537708 19.317715162094 2416708.058852253 16.2042757654342 3115.76600911423 11.7841191614214 65.8153666067535 3432206.53068301 T 41 CATAB v2.0f-lin.ifort 2021-Mar-04 05:59:02 2021-Mar-04 05:59
1905-May-16 11:14 00:09 Earth 0.312279249367644 0.312222140667063 0.312336380387026 19.8355046010515 19.8350744403952 2416981.967826919 8.5362980931453 5044.62981621738 42.9838379167492 -55.6279259392877 811201.83204838 T 41 CATAB v2.0f-lin.ifort 2021-Mar-04 05:59:02 2021-Mar-04 05:59
1905-Jun-17 12:11 00:21 Venus 0.127748648742443 0.127681986113398 0.127815398189959 15.1281407112066 15.1270170297744 2417014.007309928 21.3005444546382 6216.61298553927 16.3015942666632 57.6503627490415 820783.873266318 T 41 CATAB v2.0f-lin.ifort 2021-Mar-04 05:59:02 2021-Mar-04 05:59
1909-Feb-13 20:46 00:06 Earth 0.484149831580596 0.484060660951778 0.484239002213955 29.7122143167751 29.7120290920724 2418351.365018637 5.99688334057059 4447.19653223106 15.8279831940827 0.9768779011185 74423.7243694899 T 41 CATAB v2.0f-lin.ifort 2021-Mar-04 05:59:02 2021-Mar-04 05:59
1909-Oct-05 09:10 00:17 Venus 0.118484366147346 0.118430026665478 0.118538782887983 15.3614037077295 15.3602105609874 2418584.881967837 17.4898904296992 5487.98011522392 17.3971404599182 60.3887561433529 760028.376896447 T 41 CATAB v2.0f-lin.ifort 2021-Mar-04 05:59:02 2021-Mar-04 05:59
1910-Feb-12 04:58 00:16 Earth 0.316938293420757 0.316880340944414 0.316996246213027 11.0368484630618 11.0360867216802 2418714.707147735 16.1606154419615 2932.63804549252 43.3190224171588 -9.80374755437356 182572.740103745 T 41 CATAB v2.0f-lin.ifort 2021-Mar-04 05:59:02 2021-Mar-04 05:59
1911-May-26 16:52 00:09 Earth 0.254854960447928 0.254843293901063 0.254866654371579 15.8501418238545 15.849482201827 2419183.202639275 9.14064581641643 4216.2394590071 41.2173877680503 -82.0810698051922 808212.332415906 T 41 CATAB v2.0f-lin.ifort 2021-Mar-04 05:59:02 2021-Mar-04 05:59
1914-Jan-23 14:35 00:14 Venus 0.110933625397003 0.110892341233005 0.110974974467963 15.6472847876194 15.6460337104044 2420156.107625872 13.9876933291674 4706.61081566971 18.3452135680955 64.0393476682949 716096.103152649 T 41 CATAB v2.0f-lin.ifort 2021-Mar-04 05:59:02 2021-Mar-04 05:59
1916-Jan-27 00:47 00:06 Earth 0.192200806624714 0.192133047351437 0.192268581740426 11.3956832715118 11.3944666934982 2420889.532844829 5.99932028466201 4357.97448725754 9.98670034331025 -39.1535026470869 2061468.19700881 T 41 CATAB v2.0f-lin.ifort 2021-Mar-04 05:59:02 2021-Mar-04 05:59
1917-Jun-10 05:27 00:12 Earth 0.273893162436835 0.273870600484043 0.273915740401402 13.109904711654 13.1091626432804 2421389.727384259 12.2122230868979 3490.37976275341 34.6766158086179 71.1961510566584 807180.486433689 T 41 CATAB v2.0f-lin.ifort 2021-Mar-04 05:59:02 2021-Mar-04 05:59
1918-May-14 03:38 00:11 Venus 0.105245966898062 0.105216643568668 0.105275341411595 15.9532920553754 15.9519986615816 2421727.651621204 11.0034755991564 3942.13669307591 19.1189407060813 68.207453000327 685246.349192103 T 41 CATAB v2.0f-lin.ifort 2021-Mar-04 05:59:02 2021-Mar-04 05:59
1922-Jan-25 07:34 00:02 Earth 0.046004796410898 0.0459644363631642 0.0460451859480926 14.5910316931926 14.5870617679539 2423079.814980195 1.85530987224992 2725.44140365984 13.09361762036 42.3746506774475 367967.218935716 T 41 CATAB v2.0f-lin.ifort 2021-Mar-04 05:59:02 2021-Mar-04 05:59
1922-Sep-01 21:39 00:09 Venus 0.101441836776061 0.101421994505441 0.101461718169112 16.2562004366944 16.2548835440039 2423299.402025018 8.692122539325 3294.57363314054 19.8409876629912 72.5065441442456 661721.674708359 T 41 CATAB v2.0f-lin.ifort 2021-Mar-04 05:59:02 2021-Mar-04 05:59
1923-Jul-02 23:04 00:11 Earth 0.340168535532227 0.340146246561177 0.340190832049846 13.9161688141879 13.9156059452131 2423603.461321697 10.5828491774085 2760.86986904679 24.0612003341131 66.2628960219475 1085327.96680397 T 41 CATAB v2.0f-lin.ifort 2021-Mar-04 05:59:02 2021-Mar-04 05:59
1926-Dec-21 04:30 00:07 Venus 0.0969029052025694 0.0968938457313538 0.0969119961364462 16.7954143134121 16.7940799974603 2424870.687428657 6.77814050371841 2793.30187591704 20.6950516071409 80.6843471922986 635391.436471216 T 41 CATAB v2.0f-lin.ifort 2021-Mar-04 05:59:02 2021-Mar-04 05:59
1928-Jan-30 11:40 00:03 Earth 0.124670962213599 0.124626858860536 0.124715066209626 18.7357753111481 18.7346345660866 2425275.986238332 2.49377026241391 2244.13512887588 14.3940670467378 -11.4827127222048 248002.463360303 T 41 CATAB v2.0f-lin.ifort 2021-Mar-04 05:59:02 2021-Mar-04 05:59
1929-Mar-29 20:33 00:09 Earth 0.427829240138334 0.427828436377131 0.42783004390688 10.6591896465718 10.6586053550192 2425700.355966283 8.58379590094567 118.819338259407 24.5855203689557 -74.2157787167562 802105.065419428 T 41 CATAB v2.0f-lin.ifort 2021-Mar-04 05:59:02 2021-Mar-04 05:59
1929-Jul-22 17:22 00:07 Earth 0.402496362087402 0.402481622551111 0.402511104055461 16.3318535807921 16.3314482400026 2425815.223529225 7.27817370182957 1724.96186418062 16.8433727391538 64.7848824072898 1815361.09932442 T 41 CATAB v2.0f-lin.ifort 2021-Mar-04 05:59:02 2021-Mar-04 05:59
1930-May-05 16:11 00:03 Earth 0.460687378621443 0.460656599693955 0.460718158659602 25.8956938213018 25.8954704741781 2426102.174366126 2.91522316631688 1905.02892868679 43.5904893425675 -36.3357189376307 861616.707395331 T 41 CATAB v2.0f-lin.ifort 2021-Mar-04 05:59:02 2021-Mar-04 05:59
1931-Apr-11 05:38 00:05 Venus 0.0953355000747762 0.0953322517205057 0.0953387705430939 17.1387683104247 17.137439229183 2426442.734426168 5.35880996652989 2314.95329465421 21.0869889122845 86.0062380760364 623494.750051456 T 41 CATAB v2.0f-lin.ifort 2021-Mar-04 05:59:02 2021-Mar-04 05:59
